• En España
  • Lista de países
  • Para 7 días
  • Temperatura del agua
  • Mapa Satelital
  • El tiempo en el mapa
  • Informadores
  • user-avatar
    Iniciar sesión

    Tiempo cada hora Meppel

    Hoy, 25 Febrero, Sábado

    Tiempo Temperatura Precipitaciones Viento Presión Humedad
    00:00 0°C° 0 mm 3 mps 764 mmHg 94%
    01:00 0°C° 0 mm 3 mps 764 mmHg 95%
    02:00 -1°C° 0 mm 4 mps 764 mmHg 95%
    03:00 -1°C° 0 mm 4 mps 763 mmHg 95%
    04:00 -1°C° 0 mm 5 mps 763 mmHg 95%
    05:00 -1°C° 0 mm 5 mps 763 mmHg 94%
    06:00 -1°C° 0 mm 4 mps 763 mmHg 94%
    07:00 0°C° 0,1 mm 5 mps 763 mmHg 91%
    08:00 +1°C° 0,1 mm 6 mps 762 mmHg 87%
    09:00 +2°C° 0,1 mm 7 mps 762 mmHg 84%
    10:00 +1°C° 0,4 mm 8 mps 762 mmHg 83%
    11:00 +2°C° 0,4 mm 8 mps 762 mmHg 81%
    12:00 +2°C° 0,4 mm 8 mps 761 mmHg 80%
    13:00 +4°C° 0,1 mm 8 mps 761 mmHg 79%
    14:00 +4°C° 0,1 mm 8 mps 760 mmHg 79%
    15:00 +5°C° 0,1 mm 8 mps 760 mmHg 78%
    16:00 +4°C° 0,1 mm 8 mps 759 mmHg 80%
    17:00 +4°C° 0,1 mm 8 mps 759 mmHg 81%
    18:00 +4°C° 0,1 mm 8 mps 758 mmHg 83%
    19:00 +4°C° 0,5 mm 8 mps 758 mmHg 84%
    20:00 +4°C° 0,5 mm 8 mps 758 mmHg 86%
    21:00 +5°C° 0,5 mm 8 mps 758 mmHg 87%
    22:00 +5°C° 1,1 mm 8 mps 758 mmHg 88%
    23:00 +5°C° 1,1 mm 8 mps 757 mmHg 90%

    Mañana, 26 Febrero, Domingo

    Tiempo Temperatura Precipitaciones Viento Presión Humedad
    00:00 +5°C° 1,1 mm 8 mps 757 mmHg 91%
    01:00 +5°C° 1,2 mm 8 mps 757 mmHg 92%
    02:00 +5°C° 1,2 mm 8 mps 756 mmHg 92%
    03:00 +5°C° 1,2 mm 8 mps 756 mmHg 93%
    04:00 +5°C° 0,6 mm 8 mps 756 mmHg 93%
    05:00 +5°C° 0,6 mm 8 mps 756 mmHg 93%
    06:00 +5°C° 0,6 mm 8 mps 755 mmHg 93%
    07:00 +5°C° 0,1 mm 8 mps 755 mmHg 92%
    08:00 +5°C° 0,1 mm 8 mps 756 mmHg 92%
    09:00 +6°C° 0,1 mm 8 mps 756 mmHg 92%
    10:00 +6°C° 0,1 mm 8 mps 756 mmHg 91%
    11:00 +6°C° 0,1 mm 7 mps 756 mmHg 90%
    12:00 +8°C° 0,1 mm 7 mps 756 mmHg 90%
    13:00 +8°C° 0 mm 7 mps 756 mmHg 90%
    14:00 +8°C° 0 mm 7 mps 755 mmHg 89%
    15:00 +8°C° 0 mm 7 mps 755 mmHg 89%
    16:00 +8°C° 0,1 mm 7 mps 755 mmHg 90%
    17:00 +8°C° 0,1 mm 7 mps 755 mmHg 90%
    18:00 +8°C° 0,1 mm 7 mps 755 mmHg 91%
    19:00 +8°C° 0,1 mm 7 mps 754 mmHg 91%
    20:00 +8°C° 0,1 mm 7 mps 754 mmHg 90%
    21:00 +8°C° 0,1 mm 7 mps 754 mmHg 90%
    22:00 +8°C° 0 mm 7 mps 754 mmHg 91%
    23:00 +8°C° 0 mm 7 mps 753 mmHg 91%

    Pasado mañana, 27 Febrero, Lunes

    Tiempo Temperatura Precipitaciones Viento Presión Humedad
    00:00 +6°C° 0 mm 7 mps 753 mmHg 92%
    01:00 +6°C° 0 mm 7 mps 752 mmHg 91%
    02:00 +6°C° 0 mm 7 mps 752 mmHg 91%
    03:00 +6°C° 0 mm 8 mps 751 mmHg 90%
    04:00 +6°C° 0 mm 8 mps 750 mmHg 89%
    05:00 +6°C° 0 mm 8 mps 750 mmHg 88%
    06:00 +6°C° 0 mm 8 mps 749 mmHg 87%
    07:00 +6°C° 0,1 mm 8 mps 748 mmHg 86%
    08:00 +7°C° 0,1 mm 9 mps 747 mmHg 85%
    09:00 +7°C° 0,1 mm 9 mps 747 mmHg 84%
    10:00 +7°C° 0,7 mm 9 mps 746 mmHg 85%
    11:00 +7°C° 0,7 mm 10 mps 745 mmHg 85%
    12:00 +7°C° 0,7 mm 10 mps 744 mmHg 86%
    13:00 +7°C° 0,7 mm 10 mps 744 mmHg 85%
    14:00 +7°C° 0,7 mm 9 mps 743 mmHg 84%
    15:00 +7°C° 0,7 mm 9 mps 742 mmHg 84%
    16:00 +6°C° 0,4 mm 8 mps 742 mmHg 85%
    17:00 +5°C° 0,4 mm 7 mps 742 mmHg 86%
    18:00 +5°C° 0,4 mm 6 mps 742 mmHg 87%
    19:00 +4°C° 0,1 mm 6 mps 741 mmHg 87%
    20:00 +4°C° 0,1 mm 7 mps 741 mmHg 86%
    21:00 +3°C° 0,1 mm 7 mps 741 mmHg 86%
    22:00 +3°C° 0,1 mm 7 mps 741 mmHg 85%
    23:00 +3°C° 0,1 mm 7 mps 740 mmHg 84%

    28 Febrero, Martes

    Tiempo Temperatura Precipitaciones Viento Presión Humedad
    00:00 +2°C° 0,1 mm 8 mps 740 mmHg 82%
    01:00 +1°C° 0,1 mm 8 mps 740 mmHg 82%
    02:00 +2°C° 0,1 mm 7 mps 740 mmHg 82%
    03:00 +2°C° 0,1 mm 7 mps 740 mmHg 82%
    04:00 0°C° 0 mm 7 mps 740 mmHg 83%
    05:00 0°C° 0 mm 7 mps 740 mmHg 84%
    06:00 0°C° 0 mm 7 mps 740 mmHg 86%
    07:00 +1°C° 0 mm 6 mps 740 mmHg 84%
    08:00 +2°C° 0 mm 6 mps 739 mmHg 83%
    09:00 +2°C° 0 mm 6 mps 739 mmHg 82%
    10:00 +3°C° 0,7 mm 5 mps 738 mmHg 82%
    11:00 +4°C° 0,7 mm 4 mps 738 mmHg 83%
    12:00 +5°C° 0,7 mm 2 mps 738 mmHg 83%
    13:00 +4°C° 0,3 mm 3 mps 738 mmHg 82%
    14:00 +4°C° 0,3 mm 3 mps 739 mmHg 80%
    15:00 +5°C° 0,3 mm 4 mps 739 mmHg 79%
    16:00 +4°C° 0 mm 4 mps 740 mmHg 81%
    17:00 +3°C° 0 mm 4 mps 742 mmHg 84%
    18:00 +3°C° 0 mm 4 mps 743 mmHg 87%
    19:00 +1°C° 0 mm 4 mps 744 mmHg 87%
    20:00 +1°C° 0 mm 5 mps 745 mmHg 87%
    21:00 +1°C° 0 mm 5 mps 746 mmHg 87%
    22:00 +1°C° 0 mm 6 mps 747 mmHg 87%
    23:00 +2°C° 0 mm 6 mps 747 mmHg 87%

    1 Marzo, Miércoles

    Tiempo Temperatura Precipitaciones Viento Presión Humedad
    00:00 +2°C° 0 mm 7 mps 748 mmHg 86%
    01:00 +2°C° 0 mm 7 mps 748 mmHg 86%
    02:00 +2°C° 0 mm 7 mps 749 mmHg 85%
    03:00 +2°C° 0 mm 7 mps 749 mmHg 84%
    04:00 +2°C° 0 mm 7 mps 750 mmHg 86%
    05:00 +1°C° 0 mm 8 mps 750 mmHg 87%
    06:00 +1°C° 0 mm 8 mps 750 mmHg 88%
    07:00 +2°C° 0 mm 8 mps 750 mmHg 86%
    08:00 +2°C° 0 mm 8 mps 750 mmHg 84%
    09:00 +3°C° 0 mm 9 mps 750 mmHg 82%
    10:00 +3°C° 0,8 mm 9 mps 750 mmHg 83%
    11:00 +4°C° 0,8 mm 8 mps 749 mmHg 84%
    12:00 +2°C° 0,8 mm 8 mps 748 mmHg 85%
    13:00 +4°C° 1,2 mm 8 mps 747 mmHg 87%
    14:00 +5°C° 1,2 mm 9 mps 746 mmHg 89%
    15:00 +6°C° 1,2 mm 9 mps 745 mmHg 91%
    16:00 +6°C° 0,1 mm 10 mps 745 mmHg 89%
    17:00 +5°C° 0,1 mm 10 mps 745 mmHg 86%
    18:00 +4°C° 0,1 mm 11 mps 746 mmHg 83%
    19:00 +4°C° 0,2 mm 11 mps 747 mmHg 82%
    20:00 +4°C° 0,2 mm 11 mps 748 mmHg 82%
    21:00 +3°C° 0,2 mm 11 mps 749 mmHg 81%
    22:00 +3°C° 0 mm 11 mps 750 mmHg 79%
    23:00 +2°C° 0 mm 11 mps 751 mmHg 77%

    2 Marzo, Jueves

    Tiempo Temperatura Precipitaciones Viento Presión Humedad
    00:00 +2°C° 0 mm 11 mps 752 mmHg 75%
    01:00 +2°C° 0 mm 11 mps 752 mmHg 76%
    02:00 +2°C° 0 mm 10 mps 753 mmHg 77%
    03:00 +2°C° 0 mm 10 mps 753 mmHg 78%
    04:00 +2°C° 0,3 mm 10 mps 753 mmHg 79%
    05:00 +3°C° 0,3 mm 10 mps 754 mmHg 81%
    06:00 +3°C° 0,3 mm 11 mps 754 mmHg 82%
    07:00 +3°C° 0,1 mm 11 mps 754 mmHg 81%
    08:00 +4°C° 0,1 mm 11 mps 754 mmHg 79%
    09:00 +6°C° 0,1 mm 11 mps 755 mmHg 78%
    10:00 +6°C° 0,1 mm 11 mps 755 mmHg 75%
    11:00 +6°C° 0,1 mm 11 mps 755 mmHg 72%
    12:00 +7°C° 0,1 mm 12 mps 756 mmHg 69%
    13:00 +7°C° 0 mm 10 mps 756 mmHg 69%
    14:00 +7°C° 0 mm 9 mps 757 mmHg 69%
    15:00 +6°C° 0 mm 8 mps 757 mmHg 70%
    16:00 +6°C° 0 mm 7 mps 758 mmHg 74%
    17:00 +5°C° 0 mm 6 mps 758 mmHg 79%
    18:00 +5°C° 0 mm 4 mps 758 mmHg 83%
    19:00 +4°C° 0 mm 4 mps 758 mmHg 85%
    20:00 +4°C° 0 mm 4 mps 758 mmHg 88%
    21:00 +4°C° 0 mm 4 mps 758 mmHg 90%
    22:00 +4°C° 0 mm 4 mps 758 mmHg 91%
    23:00 +3°C° 0 mm 5 mps 757 mmHg 93%
    Mostrar más